Flag for Norway Weather past 2 weeks in Mosjøen, Norway

Now
73 °F

Mild.


Feels Like: 77 °F
Forecast: 57 / 75 °F
Wind: 6 mph from North

Location: Mosjoen Kjaerstad

Current Time: Jul 24, 2014 at 3:44:46 PM

Latest Report: Jul 24, 2014 at 3:00 PM


Visibility: N/A

Pressure: 30.24 "Hg

Humidity: 58%

Dew point: 58 °F

Location of MosjøenLocation

Historic Weather in Mosjøen — Graph

°F

Mosjøen temperature yesterday

Maximum temperature yesterday: 80 °F (at 2:00 PM)
Minimum temperature yesterday: 54 °F (at 4:00 AM)
Average temperature yesterday: 67 °F

Past Weeks' High & Low Weather Summary

 TemperatureHumidityPressure
High90 °F (Jul 9, 4:00 PM)95% (Jul 17, 4:00 AM)30.35 "Hg (Jul 17, 4:00 AM)
Low54 °F (Jul 23, 4:00 AM)22% (Jul 13, 5:00 PM)29.70 "Hg (Jul 15, 3:00 PM)
Average70 °F65%30.05 "Hg
* Reported Jul 9 3:00 PM — Jul 24 2:00 PM, Mosjøen, Weather by CustomWeather, © 2014

Note: Actual official high and low records may vary slightly from our data, if they occured in-between our weather recording intervals... More about our weather records

Advertising

Mosjøen weather history for previous 24 hours

 ConditionsComfort  
Time TempWeatherWind HumidityBarometerVisibility
2:00 PM
Jul 24
72 °FMild.6 mph60%30.26 "HgN/A
1:00 PM71 °FMild.3 mph60%30.28 "HgN/A
12:00 PM68 °FMild.2 mph66%30.29 "HgN/A
11:00 AM66 °FMild.2 mph71%30.31 "HgN/A
10:00 AM64 °FMild.3 mph75%30.31 "HgN/A
9:00 AM64 °FMild.2 mph79%30.31 "HgN/A
8:00 AM62 °FCool.No wind87%30.32 "HgN/A
7:00 AM60 °FCool.No wind92%30.32 "HgN/A
6:00 AM59 °FCool.No wind93%30.33 "HgN/A
5:00 AM56 °FCool.No wind94%30.33 "HgN/A
4:00 AM56 °FCool.1 mph93%30.34 "HgN/A
3:00 AM55 °FCool.1 mph92%30.33 "HgN/A
2:00 AM58 °FCool.No wind91%30.32 "HgN/A
1:00 AM59 °FCool.1 mph88%30.32 "HgN/A
12:00 AM63 °FMild.2 mph83%30.32 "HgN/A
11:00 PM
Jul 23
65 °FMild.3 mph79%30.31 "HgN/A
10:00 PM66 °FMild.5 mph76%30.30 "HgN/A
9:00 PM70 °FMild.5 mph66%30.29 "HgN/A
8:00 PM72 °FMild.6 mph58%30.29 "HgN/A
7:00 PM75 °FMild.5 mph50%30.29 "HgN/A
6:00 PM75 °FMild.3 mph52%30.29 "HgN/A
5:00 PM75 °FMild.3 mph51%30.29 "HgN/A
4:00 PM76 °FMild.6 mph48%30.29 "HgN/A
Weather by CustomWeather, © 2014

See weather overviewHow to use our weather pages